Location: Sungai Kamana Besar
(2.6333°N, 113.4333°E)
Time: 06:31:30
(UTC+00:00)

Meteor 1-5 Rocket - Pass Details

Date: 29 May 2022
Orbit: 788 x 916 km, 81.2° (Epoch: 26 June)

Event Time Altitude Azimuth Distance (km) Brightness Sun altitude
Rises 12:02:39 0° 358° (N) 3,266 7.6 -21.8°
Reaches altitude 10° 12:05:00 10° 0° (N) 2,340 6.8 -22.3°
Maximum altitude 12:10:15 75° 85° (E) 822 3.9 -23.5°
Enters shadow 12:11:24 55° 152° (SSE) 954 4.1 -23.8°
